This demonstration page uses our WeatherBlox Daily Observations layout. Learn more.

Left ArrowRight Arrow

39.95238, -75.16362

Hourly Observations for May 11, 2015

Temp ( °F °C ) Dew Point ( °F °C ) Humidity (%) Winds ( mph kmh ) Pressure ( in mb ) Visibility ( mi km ) Precip ( " mm )
12:37 am 00:37 Mostly Clear 71 21.7 67 19.4 87 87 S 7 11 30.15 1021 8 13 0.00 0.00
12:54 am 00:54 Mostly Clear 71 21.7 67 19.4 87 87 SSW 5 7 30.15 1021 8 13 0.00 0.00
1:46 am 01:46 Mostly Cloudy 70 21 66 19 88 88 S 3 6 30.15 1021 7 11 0.00 0.00
1:54 am 01:54 Mostly Cloudy 71 21.7 67 19.4 87 87 SSW 3 6 30.14 1021 7 11 0.00 0.00
2:09 am 02:09 Mostly Cloudy 70 21.1 67 19.4 90 90 Calm 30.15 1021 7 11 0.00 0.00
2:36 am 02:36 Mostly Cloudy with Mist and Fog 69 20.6 66 18.9 90 90 S 5 7 30.15 1021 6 10 0.00 0.00
2:47 am 02:47 Mostly Cloudy with Mist and Fog 70 21.1 67 19.4 90 90 SSW 3 6 30.15 1021 6 10 0.00 0.00
2:54 am 02:54 Mostly Cloudy with Mist and Fog 70 21.1 67 19.4 90 90 S 3 6 30.14 1021 6 10 0.00 0.00
3:54 am 03:54 Cloudy with Mist and Fog 70 21.1 67 19.4 90 90 SSW 5 7 30.14 1021 5 8 0.00 0.00
4:01 am 04:01 Cloudy with Mist and Fog 70 21.1 67 19.4 90 90 SSW 3 6 30.12 1020 5 8 0.00 0.00
4:18 am 04:18 Cloudy with Mist and Fog 70 21.1 67 19.4 90 90 SSW 6 9 30.12 1020 5 8 0.00 0.00
4:54 am 04:54 Cloudy with Mist and Fog 70 21.1 66 18.9 87 87 SSW 7 11 30.13 1020 5 8 0.00 0.00
5:24 am 05:24 Cloudy with Mist and Fog 70 21.1 66 18.9 87 87 S 9 15 30.12 1020 6 10 0.00 0.00
5:54 am 05:54 Cloudy with Mist and Fog 70 21.1 66 18.9 87 87 SSW 8 13 30.13 1020 6 10 0.00 0.00
6:29 am 06:29 Cloudy with Mist and Fog 70 21.1 66 18.9 87 87 SSW 6 9 30.12 1020 5 8 0.00 0.00
6:54 am 06:54 Cloudy with Mist and Fog 70 21.1 66 18.9 87 87 S 6 9 30.13 1020 5 8 0.00 0.00
7:23 am 07:23 Cloudy 70 21.1 66 18.9 87 87 S 7 11 30.15 1021 7 11 0.00 0.00
7:54 am 07:54 Cloudy 70 21.1 66 18.9 87 87 S 5 7 30.14 1021 8 13 0.00 0.00
8:43 am 08:43 Cloudy 71 21.7 65 18.3 81 81 S 10 17 30.15 1021 10 16 0.00 0.00
8:54 am 08:54 Cloudy 72 22.2 65 18.3 79 79 SSW 8 13 30.14 1021 10 16 0.00 0.00
9:54 am 09:54 Mostly Cloudy 72 22.2 66 18.9 82 82 SSW 7 11 30.14 1021 10 16 0.00 0.00
10:54 am 10:54 Mostly Cloudy 74 23.3 67 19.4 79 79 S 3 6 30.13 1020 10 16 0.00 0.00
11:08 am 11:08 Mostly Cloudy 77 25 67 19.4 71 71 S 6 9 30.12 1020 10 16 0.00 0.00
11:35 am 11:35 Mostly Cloudy 77 25 67 19.4 71 71 S 6 9 30.12 1020 10 16 0.00 0.00
11:54 am 11:54 Mostly Cloudy 79 26.1 67 19.4 67 67 S 8 13 30.12 1020 10 16 0.00 0.00
12:54 pm 12:54 Mostly Cloudy 83 28.3 67 19.4 59 59 S 10 17 30.10 1019 10 16 0.00 0.00
1:54 pm 13:54 Mostly Cloudy 83 28.3 67 19.4 59 59 SSE 9 15 30.07 1018 10 16 0.00 0.00
2:02 pm 14:02 Mostly Cloudy 82 27.8 67 19.4 60 60 SSE 14 22 30.06 1018 10 16 0.00 0.00
2:54 pm 14:54 Mostly Cloudy 82 27.8 66 18.9 58 58 S 14 22 30.06 1018 10 16 0.00 0.03
3:54 pm 15:54 Mostly Cloudy 80 26.7 65 18.3 60 60 S 10 17 30.03 1017 10 16 0.00 0.00
4:54 pm 16:54 Mostly Cloudy 81 27.2 65 18.3 58 58 SSE 14 22 30.01 1016 10 16 0.00 0.00
5:54 pm 17:54 Mostly Cloudy 78 25.6 65 18.3 64 64 S 9 15 30.01 1016 10 16 0.00 0.00
6:54 pm 18:54 Mostly Cloudy 76 24.4 64 17.8 67 67 SSE 13 20 29.99 1016 10 16 0.00 0.00
7:54 pm 19:54 Mostly Cloudy 75 23.9 65 18.3 71 71 SSE 7 11 29.98 1015 10 16 0.00 0.00
8:54 pm 20:54 Mostly Cloudy 73 22.8 65 18.3 76 76 SE 5 7 29.98 1015 10 16 0.00 0.00
9:54 pm 21:54 Mostly Cloudy 72 22.2 65 18.3 79 79 Calm 29.98 1015 10 16 0.00 0.00
10:24 pm 22:24 Mostly Cloudy 72 22.2 65 18.3 79 79 NNE 3 6 29.97 1015 10 16 0.00 0.00
10:34 pm 22:34 Cloudy 72 22.2 65 18.3 79 79 NNE 3 6 29.97 1015 10 16 0.00 0.00
10:46 pm 22:46 Cloudy 73 23 64 18 74 74 VRB 5 7 29.97 1015 10 16 0.00 0.00
10:54 pm 22:54 Cloudy 73 22.8 65 18.3 76 76 NNE 3 6 29.96 1015 10 16 0.00 0.00
11:46 pm 23:46 Mostly Cloudy 71 21.7 65 18.3 81 81 E 5 7 29.94 1014 10 16 0.00 0.00
11:54 pm 23:54 Mostly Cloudy 69 20.6 65 18.3 87 87 E 5 7 29.93 1013 10 16 0.00 0.00

Powered by AerisWeather